Regional Weather Roundup
Issued by NWS

Home | Current Version | Previous Version | Graphics & Text | Print | Product List | Glossary Off
Versions: 1 2 3 4 5 6 7 8 9 10 11 12 13 14 15 16 17 18 19 20 21 22 23 24 25 26 27 28 29 30 31 32 33 34 35 36 37 38 39 40 41 42 43 44 45 46 47 48 49 50

000
ASUS43 KLOT 261408
RWRIL

ILLINOIS REGIONAL WEATHER ROUNDUP
NATIONAL WEATHER SERVICE CHICAGO/ROMEOVILLE IL
900 AM CDT THU APR 26 2018

NOTE: "FAIR" INDICATES FEW OR NO CLOUDS BELOW 12,000 FEET WITH NO
SIGNIFICANT WEATHER AND/OR OBSTRUCTIONS TO VISIBILITY.

* THESE STATIONS ARE NOT UNDER NWS QUALITY CONTROL. THEY ALSO MAY NOT
  REPORT WEATHER SUCH AS PRECIPITATION OR FOG.

ILZ001-002-007-009-015-016-024-261500-
NORTHWEST ILLINOIS

CITY           SKY/WX    TMP DP  RH WIND       PRES   REMARKS
MOLINE         FAIR      51  35  54 SW7       29.96S
STERLING*      FAIR      50  31  48 S6        29.98S
SAVANNA*       FAIR      47  33  57 S3        29.97F
$$

ILZ003-004-008-010-011-017-018-261500-
NORTH CENTRAL ILLINOIS

CITY           SKY/WX    TMP DP  RH WIND       PRES   REMARKS
ROCKFORD       CLOUDY    47  32  56 SW3       29.98S
FREEPORT*      FAIR      49  32  51 S7        29.97F
ROCHELLE*      FAIR      49  31  48 S6        29.97F
DE KALB*       FAIR      51  32  47 S5        29.97S
PERU*          FAIR      49  32  51 S6        29.99S
$$

ILZ005-006-012>014-019>023-261500-
NORTHEAST ILLINOIS

CITY           SKY/WX    TMP DP  RH WIND       PRES   REMARKS
CHICAGO-OHARE  FAIR      49  29  46 CALM      29.96S
CHICAGO-MIDWAY FAIR      50  31  48 CALM      29.97S
AURORA         FAIR      50  34  54 CALM      29.97S
LANSING*       FAIR      47  36  66 CALM      29.97F
JOLIET*        FAIR      50  33  52 CALM      29.97S
WAUKEGAN       FAIR      48  33  56 CALM      29.96S
DUPAGE AIRPORT FAIR      48  33  56 CALM      29.96S
KANKAKEE*      FAIR      48  33  55 CALM      29.99S
WHEELING       FAIR      49  31  49 CALM      29.98S
MORRIS*        FAIR      48  32  55 CALM      29.97S
ROMEOVILLE*    FAIR      48  32  53 CALM      29.97F
NORTHERLY ISL    N/A     46  30  54 NE3         N/A
$$

LMZ740>746-261500-
SOUTHERN LAKE MICHIGAN

STATION/POSITION SKY/WX   TEMP    WIND        PRES    VSBY  WAVE
                          AIR SEA DIR/SP/G                  HT/PER
                          (F)     (DEG/KT/KT) (MB)    (MI)  (FT/S)
HARRISON CRIB              42      30/  3/  3   N/A
BURNHAM HARBOR             46      70/  3/  5   N/A
CALUMET HARBOR             45      30/  5/  7 1014.5R
BURNS HARBOR               40      20/  6/  8 1015.6S
MICHIGAN CITY              40      20/  6/  6   N/A
ST. JOSEPH                 42 43  210/  4/  6 1015.7          1/ 4
$$

ILZ025>027-034>036-040-047-049-050-058-095>099-261500-
WEST-CENTRAL ILLINOIS

CITY           SKY/WX    TMP DP  RH WIND       PRES   REMARKS
QUINCY         SUNNY     53  40  61 S3        29.98R
GALESBURG*     FAIR      54  38  55 S8        29.98S
MACOMB*        SUNNY     50  37  59 S10       30.00S
JACKSONVILLE*  SUNNY     51  37  59 SE6       29.99R
PITTSFIELD*    SUNNY     53  39  59 SE3       30.00S
$$

ILZ028>032-037-038-041>044-048-051>054-059>061-261500-
CENTRAL ILLINOIS

CITY           SKY/WX    TMP DP  RH WIND       PRES   REMARKS
PONTIAC        FAIR      47  32  55 CALM      30.00S
BLOOMINGTON    FAIR      51  32  48 E8        29.99R
DECATUR        FAIR      50  32  50 E5        29.99R
PEORIA         FAIR      51  33  50 SE5       29.99S
LACON*         FAIR      49  32  52 S6        29.98S
LINCOLN*       FAIR      51  34  51 SE6       30.00R
SPRINGFIELD    FAIR      52  34  50 SE7       30.00R
TAYLORVILLE    FAIR      51  33  50 E5        29.99F
$$

ILZ033-039-045-046-055>057-062-063-261500-
EAST-CENTRAL ILLINOIS

CITY           SKY/WX    TMP DP  RH WIND       PRES   REMARKS
CHAMPAIGN      FAIR      50  31  48 VRB3      29.99R
DANVILLE*      FAIR      45  35  67 N5        29.96R
RANTOUL*       FAIR      49  36  61 NE7       29.99R
MATTOON        FAIR      51  32  48 CALM      29.98R
PARIS*         FAIR      47  33  59 CALM      29.99S
$$

ILZ079-100>102-261500-
SOUTHWEST ILLINOIS

CITY           SKY/WX    TMP DP  RH WIND       PRES   REMARKS
ALTON          MOSUNNY   54  39  58 SE8       29.98R
BELLEVILLE     CLOUDY    54  39  57 N8        29.96S
CAHOKIA*       CLOUDY    55  38  52 E9        29.97S
SPARTA*        CLOUDY    51  46  83 NE6       29.97S
$$

ILZ064>066-069>071-074>076-080>082-084>086-088>090-092>094-261500-
SOUTH-CENTRAL ILLINOIS

CITY           SKY/WX    TMP DP  RH WIND       PRES   REMARKS
CARBONDALE     CLOUDY    51  42  71 N5        29.94R
CAIRO*         CLOUDY    54  45  70 N6        29.90S
EFFINGHAM*     FAIR      53  37  54 NE6       29.98F
MARION         DRIZZLE   50  41  71 NE9       29.94R
MT. VERNON     PTSUNNY   52  36  54 NE9       29.96S
CENTRALIA*     CLOUDY    55  37  51 NE9       29.95F
SALEM*         FAIR      54  35  48 NE6       29.96F
METROPOLIS*    CLOUDY    55  42  60 NE3       29.91S
$$

ILZ067-068-072-073-078-083-087-091-261500-
SOUTHEAST ILLINOIS

CITY           SKY/WX    TMP DP  RH WIND       PRES   REMARKS
LAWRENCEVILLE    N/A     56  33  42 MISG      29.96F
FLORA*         FAIR      53  35  51 NE6       29.97F
FAIRFIELD*     CLOUDY    52  35  51 NE5       29.95R
HARRISBURG*    CLOUDY    51  43  73 N5        29.96R
ROBINSON*      FAIR      52  35  53 N7        29.97F
CARMI*         CLOUDY    51  40  67 N7        29.94S
$$

ABBREVIATIONS USED IN REMARKS
   TC - TEMPERATURE IN CELSIUS
  WCI - WIND CHILL INDEX
   HX - HEAT INDEX
  VSB - VISIBILITY
$$




USA.gov is the U.S. government's official web portal to all federal, state and local government web resources and services.